Terminal Aerodrome Forecast
Issued by NWS

Home | Current Version | Previous Version | Text Only | Print | Product List | Glossary On
Versions: 1 2 3 4 5 6 7 8 9 10 11 12 13 14
000
FTUS46 KMTR 162330
TAFMRY
TAF
KMRY 162330Z 1700/1724 23010KT P6SM FEW020
     FM170200 23007KT P6SM OVC010
     FM170400 23004KT P6SM OVC007
     FM171200 VRB03KT 4SM BR OVC003
     FM171600 VRB03KT P6SM OVC007
     FM171800 VRB03KT P6SM SCT009
     FM172000 24010KT P6SM SKC=

USA.gov is the U.S. government's official web portal to all federal, state and local government web resources and services.